SCP
0 0 0 0 0 0 0 0 0 0 0 0 0 0 0 0 0 0 0 0 1 1 0 0 0 0 0 0 0 0 0 0 0 0 0 0 0 0 0 0 0 0 0
0 0 0 0 0 0 0 0 0 0 0 0 0 0 0 0 0 0 0 0 0 0 0 0 0 0 0 0 0 0 0 0 0 0 0 0 0 0 0 0 0 0 0
0 0 0 0 0 0 0 0 0 0 0 0 0 0 0 0 0 0 0 0 0 0 0 0 0 0 0 0 0 0 1 1 1 0 0 0 0 0 0 0 0 0 0
0 0 0 0 0 0 0 0 0 0 0 0 0 0 0 0 0 0 0 0 0 0 0 0 0 0 1 1 1 1 1 1 1 1 0 0 0 0 0 0 0 0 0
0 0 0 0 0 0 0 0 0 0 0 0 0 0 0 0 0 0 0 0 0 0 0 0 0 0 0 0 0 0 0 1 1 1 0 0 0 0 0 0 0 0 0
0 0 0 0 0 0 0 0 0 0 0 0 0 0 0 0 0 0 0 0 0 0 0 0 0 0 0 0 0 0 0 0 0 0 0 0 0 0 0 0 0 0 0
0 0 0 0 0 0 0 0 0 0 0 0 0 0 0 0 0 0 0 0 0 0 0 1 1 1 0 0 0 0 0 0 0 0 0 0 0 0 0 0 0 1 1
0 0 0 0 0 0 0 0 0 0 0 0 0 0 0 0 0 0 0 0 0 0 0 1 1 1 1 1 0 0 0 0 0 0 0 0 0 0 0 0 1 1 1
0 0 0 0 0 0 0 0 0 0 0 0 0 0 0 0 0 0 0 0 0 0 0 1 1 1 1 1 1 1 0 0 0 0 0 0 0 0 0 0 1 1 1
0 0 0 0 0 0 0 0 0 0 0 0 0 0 0 0 0 0 0 0 0 0 0 0 0 0 0 1 1 1 1 0 0 0 0 0 0 0 0 0 0 1 1
0 0 0 0 0 0 0 0 0 0 0 0 0 0 0 0 0 0 0 0 0 0 0 0 0 0 0 1 1 1 0 0 0 0 0 0 0 0 0 0 0 0 0
0 0 0 0 0 0 0 0 0 0 0 0 0 0 0 0 0 0 0 0 0 0 0 0 0 0 0 0 1 1 0 0 0 0 0 0 0 0 0 0 0 0 0
0 0 0 0 0 0 0 0 0 0 0 0 0 0 0 0 0 0 0 0 0 0 0 0 0 0 0 0 0 0 0 0 0 0 0 0 0 0 0 0 0 0 0
0 0 0 0 0 0 0 0 0 0 0 0 0 0 0 0 0 0 0 0 0 0 0 0 0 0 0 0 0 0 0 0 0 0 0 0 0 0 0 0 0 0 1
1 1 0 0 0 0 0 0 0 0 0 0 0 0 0 0 0 0 0 0 0 0 0 0 0 0 0 0 0 0 0 0 0 0 0 0 0 0 0 0 0 0 0
1 1 1 1 0 0 0 0 0 0 0 0 0 0 0 0 0 0 0 0 0 0 0 0 0 0 0 0 0 0 0 0 0 0 0 0 0 0 0 0 0 0 0
2 1 1 1 0 0 0 0 0 0 0 0 0 0 0 0 0 0 0 0 0 0 0 0 0 0 0 0 0 0 0 0 0 0 0 0 0 0 0 0 0 0 0
2 1 1 1 1 0 0 0 0 0 0 0 0 0 0 0 0 0 0 0 0 0 0 0 0 0 0 0 0 0 0 0 0 0 0 0 0 0 0 0 0 0 0
1 1 1 1 1 1 0 0 0 0 0 0 0 0 0 0 0 0 0 0 0 0 0 0 0 0 0 0 0 0 0 0 0 0 0 0 0 0 0 0 0 0 0
1 1 1 1 1 1 1 0 0 0 0 0 0 0 0 0 0 0 0 0 0 0 0 0 0 0 0 0 0 0 0 0 0 0 0 0 0 0 0 0 0 0 0
1 1 1 1 1 1 0 0 0 0 0 0 0 0 0 0 0 0 0 0 0 0 0 0 0 0 0 0 0 0 0 0 0 0 0 0 0 0 0 0 0 0 0
1 1 1 0 0 0 0 0 0 0 0 0 0 0 0 0 0 0 0 0 0 0 0 0 0 0 0 0 0 0 0 0 0 0 0 0 0 0 0 0 0 0 0
1 1 0 0 0 0 0 0 0 0 0 0 0 0 0 0 0 0 0 0 0 0 0 0 0 0 0 0 0 0 0 0 0 0 0 0 0 0 0 0 0 0 0
1 1 0 0 0 0 0 0 0 0 0 0 0 0 0 0 0 0 0 0 0 0 0 0 0 0 0 0 0 0 0 0 0 0 0 0 0 0 0 0 0 0 0
1 0 0 0 0 0 0 0 0 0 0 0 0 0 0 0 0 0 0 0 0 0 0 0 0 0 0 0 0 0 0 0 0 0 0 0 0 0 0 0 0 0 0
1 0 0 0 0 0 0 0 0 0 0 0 0 0 0 0 0 0 0 0 0 0 0 0 0 0 0 0 0 0 0 0 0 0 0 0 0 0 0 1 1 1 0
Wind_Speed
2 2 2 2 2 2 2 2 2 2 3 2 2 3 3 3 3 2 2 6 6 6 7 8 8 8 7 7 7 7 7 7 7 6 6 6 6 7 7 6 6 6 6
3 2 2 2 2 1 2 2 2 2 2 2 2 2 2 2 2 2 2 3 5 6 6 7 7 7 7 7 7 7 7 7 6 6 6 6 6 6 6 6 7 6 5
3 3 2 2 1 2 2 2 3 2 2 2 2 2 2 1 2 2 2 1 1 4 5 6 6 6 6 6 6 6 6 6 5 6 6 6 6 6 6 6 7 7 6
4 3 2 2 2 2 2 2 2 2 2 2 2 1 1 1 1 1 1 1 1 1 3 5 6 6 6 6 6 6 6 6 6 6 6 7 7 7 6 6 7 7 7
4 4 3 2 3 2 2 2 2 2 2 2 2 2 2 1 0 1 1 1 1 1 1 2 3 4 5 5 5 6 6 6 7 7 7 7 7 7 7 7 7 7 7
4 4 3 3 3 3 2 2 3 2 2 2 2 3 2 2 1 1 0 0 1 1 1 1 1 1 3 3 4 4 6 6 7 7 7 7 7 7 7 7 7 7 7
5 4 3 3 3 3 3 4 3 3 2 2 2 2 2 2 2 1 1 0 0 1 1 1 1 1 1 2 3 4 5 5 5 6 6 7 7 7 8 8 7 7 7
5 5 5 4 4 3 4 4 3 3 2 1 2 2 1 2 2 1 1 0 0 0 0 1 1 1 1 1 1 2 3 3 4 5 6 6 6 7 7 8 7 8 8
5 4 5 4 4 3 3 4 4 4 3 1 1 3 3 2 1 1 1 1 0 0 0 0 1 1 1 1 1 1 2 2 3 4 4 4 5 5 6 7 7 7 8
4 4 5 5 4 3 4 3 3 3 4 3 1 1 1 3 2 0 1 1 1 0 0 0 0 1 1 1 1 2 2 2 3 4 4 4 4 5 6 8 8 9 9
3 4 5 4 4 3 4 4 3 3 3 3 3 2 2 1 1 2 1 1 1 1 1 1 1 1 1 2 2 2 2 2 3 3 4 4 5 6 6 7 9 9 9
2 4 4 4 4 3 4 4 4 4 3 3 3 2 3 3 2 2 2 1 1 1 1 1 1 2 2 2 3 3 3 3 3 3 4 5 5 5 6 6 7 7 8
3 4 4 4 4 4 4 4 4 3 4 4 3 2 2 2 2 3 3 2 1 1 1 1 2 2 2 2 2 3 3 3 3 4 5 4 4 5 5 5 6 6 6
5 5 5 5 5 5 4 4 3 3 3 3 3 3 2 2 2 3 3 3 2 0 1 2 1 2 2 2 2 3 3 3 3 4 5 4 4 4 5 5 5 5 5
4 6 6 5 5 5 5 4 3 3 3 2 3 3 2 1 2 2 2 3 4 2 2 2 1 1 1 2 2 2 2 4 4 5 5 5 5 5 5 6 6 6 6
5 6 6 5 5 5 5 4 3 3 4 3 2 3 2 1 2 2 2 2 2 3 2 2 2 1 1 1 2 2 3 4 5 5 5 6 6 6 6 6 7 7 7
6 7 6 6 6 5 5 4 4 4 4 3 3 3 3 2 2 2 2 2 2 2 2 1 1 1 1 1 1 1 2 3 3 5 5 6 6 6 7 7 7 7 8
7 7 6 6 6 6 5 6 6 5 5 4 4 3 3 3 3 2 2 2 2 2 2 2 1 1 1 1 1 2 2 2 3 4 6 6 6 6 7 7 7 8 8
7 7 7 7 7 6 6 6 6 6 5 5 5 5 4 4 3 3 3 3 2 2 2 2 1 1 1 1 1 2 2 2 3 3 5 5 6 6 7 7 8 8 9
7 7 7 7 7 7 6 6 6 5 5 4 4 5 5 5 5 4 3 3 3 2 2 2 1 1 1 1 1 1 2 2 3 3 3 4 4 6 7 8 8 9 9
7 6 6 6 6 6 6 7 6 6 5 5 4 4 5 6 7 6 4 4 4 3 2 2 2 1 1 2 2 1 2 3 3 2 3 3 3 4 5 6 7 8 8
6 6 6 6 7 6 8 10 8 6 6 6 5 4 4 5 7 8 8 7 7 5 4 3 2 3 4 3 2 2 2 2 3 1 2 3 3 4 4 4 6 8 8
6 6 6 6 7 7 9 10 11 6 6 6 5 5 4 4 5 4 5 6 7 7 8 5 5 5 5 4 3 3 3 4 4 2 2 4 3 4 5 5 8 9 9
6 6 6 6 6 7 10 10 10 7 5 5 6 6 5 4 4 5 4 3 4 4 6 6 6 6 6 5 5 4 3 3 4 3 3 4 3 4 4 5 7 9 9
6 6 5 6 6 6 9 10 9 5 5 6 5 5 6 5 6 6 4 4 4 4 5 7 8 7 7 7 5 3 2 2 4 3 3 3 3 3 4 4 5 6 7
6 6 5 6 7 6 7 10 10 5 5 4 4 4 6 6 6 6 5 5 5 5 3 3 3 4 4 4 6 6 4 3 3 4 2 3 3 2 4 3 3 4 4
Wind_Direction
139 131 121 108 101 92 95 88 79 85 86 83 108 133 146 151 154 151 162 178 176 179 178 177 178 176 176 175 174 170 170 170 168 168 169 169 166 161 161 159 158 157 157
152 148 140 130 121 115 107 97 89 92 89 89 93 116 132 138 146 153 158 179 187 191 195 190 189 187 186 189 187 185 186 184 175 175 181 182 177 171 171 174 173 170 169
160 154 150 152 147 131 120 99 86 83 90 88 83 90 112 131 148 159 161 163 192 208 209 207 202 198 198 198 199 200 197 188 183 191 192 192 189 184 187 187 186 184 185
163 154 159 170 151 129 121 116 105 95 86 88 89 68 81 88 132 159 166 174 178 216 231 227 214 204 205 209 208 207 205 199 200 206 204 200 199 196 198 201 199 196 196
163 152 156 160 146 131 127 138 109 114 114 107 104 73 52 67 63 186 176 187 183 207 236 255 235 216 211 215 218 213 212 211 208 212 214 211 207 205 206 211 210 208 208
160 149 149 156 148 136 133 125 113 95 103 116 97 72 48 39 48 36 119 152 187 210 216 234 248 238 230 219 223 225 226 220 215 217 220 219 214 212 212 217 218 215 215
159 155 155 154 153 152 153 139 120 111 98 104 89 58 33 38 53 38 30 43 240 227 181 198 201 222 249 223 226 234 237 234 225 223 223 222 221 218 218 221 221 218 220
165 168 161 161 157 145 144 147 137 126 111 116 121 105 42 6 10 24 12 267 269 110 200 204 189 211 227 223 261 262 255 252 237 226 225 223 226 224 224 230 231 226 224
167 164 163 159 158 157 164 166 156 146 143 126 124 143 149 200 297 349 358 19 23 109 122 238 207 221 222 204 240 276 270 269 261 247 234 228 227 225 224 230 235 234 232
165 161 159 160 158 159 164 171 158 147 144 152 128 90 124 149 151 128 342 354 360 45 296 279 276 230 222 216 234 253 257 253 259 258 249 238 234 235 237 240 244 244 241
165 166 159 156 161 163 164 160 148 146 149 157 158 146 120 91 109 141 191 318 339 323 276 251 255 257 244 235 240 246 255 262 261 266 264 260 251 245 246 250 253 253 249
161 168 161 161 164 163 164 162 154 153 156 153 154 157 157 158 168 155 163 202 265 298 285 251 235 243 244 237 251 255 249 256 261 268 269 267 261 255 254 255 257 258 255
175 182 171 167 167 168 165 156 155 160 166 163 167 172 172 166 151 147 144 154 194 302 305 274 243 240 238 228 255 273 269 263 266 269 275 275 268 264 261 262 262 262 264
181 174 170 169 167 165 163 157 152 161 161 168 176 171 166 176 166 165 158 149 142 315 301 282 281 243 240 233 243 262 271 275 277 279 282 281 277 274 268 266 264 262 262
172 168 167 167 168 163 158 153 154 158 153 164 169 169 168 175 176 179 166 159 153 173 243 267 272 280 244 235 242 247 258 271 276 279 282 281 276 273 271 267 262 256 254
169 165 169 171 168 164 160 157 153 157 153 161 161 154 155 159 161 160 162 158 156 160 203 242 253 288 280 258 228 240 261 280 276 275 276 275 271 269 267 264 260 257 256
172 173 173 174 173 171 166 162 163 164 164 163 158 161 168 162 156 153 148 149 153 152 178 247 262 289 288 289 326 295 269 264 273 273 273 273 271 268 266 262 259 257 255
179 177 172 175 179 178 173 173 176 175 175 175 175 167 176 169 161 160 163 166 167 170 169 200 248 291 298 295 291 292 290 278 273 272 269 271 269 267 265 262 261 260 259
178 175 173 181 184 182 182 184 182 179 184 186 184 184 185 174 179 179 177 176 176 175 171 178 216 253 285 304 307 298 294 296 286 276 270 268 272 275 274 269 266 264 261
178 180 183 186 185 183 185 184 182 183 187 191 193 196 196 195 195 188 186 186 177 170 168 174 208 238 259 285 270 282 293 292 297 300 292 283 278 280 276 271 267 264 262
185 183 180 183 183 183 191 187 187 189 189 192 196 202 207 207 204 197 194 190 179 177 178 193 216 228 246 245 246 245 268 294 284 272 287 287 289 286 281 272 266 262 263
179 177 183 186 189 198 196 191 187 188 188 192 201 211 220 219 218 217 216 203 189 185 192 198 211 226 241 238 234 231 246 282 287 252 269 286 282 281 281 274 267 266 268
177 182 188 188 195 202 196 195 194 186 192 197 201 206 216 217 211 214 223 222 220 221 209 200 213 227 231 224 213 228 228 236 253 270 260 278 276 277 278 275 270 270 270
179 186 191 193 197 208 201 200 197 193 199 207 208 207 211 217 211 200 205 221 239 241 228 222 227 235 237 230 217 229 238 248 261 255 225 260 271 273 286 283 277 274 275
183 187 188 190 198 214 206 202 191 188 204 215 214 210 209 217 220 203 200 224 251 262 251 236 237 246 248 242 221 209 221 240 273 273 210 236 267 282 283 277 280 280 280
188 187 193 196 200 212 210 202 190 192 205 213 214 213 213 217 222 205 204 215 241 255 259 259 253 261 259 250 219 214 220 234 255 268 222 221 262 287 288 273 285 295 292